Year,Month,Day,Hour,Minute,Value (Times are PST for temperature in C)
2013,07,06,00,00,16.50
2013,07,06,00,01,16.40
2013,07,06,00,02,16.40
2013,07,06,00,03,16.40
2013,07,06,00,04,16.40
2013,07,06,00,05,16.30
2013,07,06,00,06,16.30
2013,07,06,00,07,16.30
2013,07,06,00,08,16.30
2013,07,06,00,09,16.20
2013,07,06,00,10,16.20
2013,07,06,00,11,16.20
2013,07,06,00,12,16.20
2013,07,06,00,13,16.10
2013,07,06,00,14,16.10
2013,07,06,00,15,16.10
2013,07,06,00,16,16.10
2013,07,06,00,17,16.10
2013,07,06,00,18,16.10
2013,07,06,00,19,16.10
2013,07,06,00,20,16.10
2013,07,06,00,21,16.00
2013,07,06,00,22,16.00
2013,07,06,00,23,16.00
2013,07,06,00,24,16.00
2013,07,06,00,25,16.00
2013,07,06,00,26,15.90
2013,07,06,00,27,15.90
2013,07,06,00,28,15.90
2013,07,06,00,29,15.90
2013,07,06,00,30,15.90
2013,07,06,00,31,15.90
2013,07,06,00,32,15.90
2013,07,06,00,33,15.90
2013,07,06,00,34,15.80
2013,07,06,00,35,15.80
2013,07,06,00,36,15.80
2013,07,06,00,37,15.80
2013,07,06,00,38,15.80
2013,07,06,00,39,15.80
2013,07,06,00,40,15.80
2013,07,06,00,41,15.70
2013,07,06,00,42,15.70
2013,07,06,00,43,15.70
2013,07,06,00,44,15.70
2013,07,06,00,45,15.70
2013,07,06,00,46,15.70
2013,07,06,00,47,15.70
2013,07,06,00,48,15.70
2013,07,06,00,49,15.70
2013,07,06,00,50,15.70
2013,07,06,00,51,15.60
2013,07,06,00,52,15.60
2013,07,06,00,53,15.60
2013,07,06,00,54,15.60
2013,07,06,00,55,15.60
2013,07,06,00,56,15.50
2013,07,06,00,57,15.50
2013,07,06,00,58,15.50
2013,07,06,00,59,15.50
2013,07,06,01,00,15.40
2013,07,06,01,01,15.40
2013,07,06,01,02,15.40
2013,07,06,01,03,15.40
2013,07,06,01,04,15.40
2013,07,06,01,05,15.40
2013,07,06,01,06,15.40
2013,07,06,01,07,15.30
2013,07,06,01,08,15.30
2013,07,06,01,09,15.30
2013,07,06,01,10,15.30
2013,07,06,01,11,15.30
2013,07,06,01,12,15.30
2013,07,06,01,13,15.20
2013,07,06,01,14,15.20
2013,07,06,01,15,15.20
2013,07,06,01,16,15.20
2013,07,06,01,17,15.20
2013,07,06,01,18,15.10
2013,07,06,01,19,15.10
2013,07,06,01,20,15.10
2013,07,06,01,21,15.00
2013,07,06,01,22,15.00
2013,07,06,01,23,14.90
2013,07,06,01,24,14.80
2013,07,06,01,25,14.70
2013,07,06,01,26,14.60
2013,07,06,01,27,14.50
2013,07,06,01,28,14.40
2013,07,06,01,29,14.40
2013,07,06,01,30,14.30
2013,07,06,01,31,14.30
2013,07,06,01,32,14.20
2013,07,06,01,33,14.20
2013,07,06,01,34,14.20
2013,07,06,01,35,14.10
2013,07,06,01,36,14.10
2013,07,06,01,37,14.10
2013,07,06,01,38,14.00
2013,07,06,01,39,14.00
2013,07,06,01,40,13.90
2013,07,06,01,41,13.90
2013,07,06,01,42,13.90
2013,07,06,01,43,13.90
2013,07,06,01,44,13.90
2013,07,06,01,45,13.90
2013,07,06,01,46,13.90
2013,07,06,01,47,13.90
2013,07,06,01,48,13.90
2013,07,06,01,49,13.90
2013,07,06,01,50,13.90
2013,07,06,01,51,13.90
2013,07,06,01,52,13.90
2013,07,06,01,53,13.90
2013,07,06,01,54,13.90
2013,07,06,01,55,13.90
2013,07,06,01,56,13.90
2013,07,06,01,57,13.90
2013,07,06,01,58,13.90
2013,07,06,01,59,13.90
2013,07,06,02,00,13.90
2013,07,06,02,01,13.80
2013,07,06,02,02,13.80
2013,07,06,02,03,13.80
2013,07,06,02,04,13.80
2013,07,06,02,05,13.80
2013,07,06,02,06,13.70
2013,07,06,02,07,13.70
2013,07,06,02,08,13.70
2013,07,06,02,09,13.70
2013,07,06,02,10,13.60
2013,07,06,02,11,13.60
2013,07,06,02,12,13.60
2013,07,06,02,13,13.50
2013,07,06,02,14,13.50
2013,07,06,02,15,13.40
2013,07,06,02,16,13.40
2013,07,06,02,17,13.40
2013,07,06,02,18,13.40
2013,07,06,02,19,13.40
2013,07,06,02,20,13.40
2013,07,06,02,21,13.30
2013,07,06,02,22,13.40
2013,07,06,02,23,13.40
2013,07,06,02,24,13.40
2013,07,06,02,25,13.40
2013,07,06,02,26,13.40
2013,07,06,02,27,13.40
2013,07,06,02,28,13.40
2013,07,06,02,29,13.40
2013,07,06,02,30,13.50
2013,07,06,02,31,13.50
2013,07,06,02,32,13.50
2013,07,06,02,33,13.50
2013,07,06,02,34,13.50
2013,07,06,02,35,13.50
2013,07,06,02,36,13.50
2013,07,06,02,37,13.50
2013,07,06,02,38,13.50
2013,07,06,02,39,13.50
2013,07,06,02,40,13.50
2013,07,06,02,41,13.50
2013,07,06,02,42,13.50
2013,07,06,02,43,13.50
2013,07,06,02,44,13.50
2013,07,06,02,45,13.50
2013,07,06,02,46,13.50
2013,07,06,02,47,13.50
2013,07,06,02,48,13.50
2013,07,06,02,49,13.40
2013,07,06,02,50,13.40
2013,07,06,02,51,13.30
2013,07,06,02,52,13.20
2013,07,06,02,53,13.20
2013,07,06,02,54,13.10
2013,07,06,02,55,13.00
2013,07,06,02,56,13.00
2013,07,06,02,57,12.90
2013,07,06,02,58,12.90
2013,07,06,02,59,12.80
2013,07,06,03,00,12.80
2013,07,06,03,01,12.70
2013,07,06,03,02,12.70
2013,07,06,03,03,12.70
2013,07,06,03,04,12.60
2013,07,06,03,05,12.60
2013,07,06,03,06,12.60
2013,07,06,03,07,12.60
2013,07,06,03,08,12.60
2013,07,06,03,09,12.60
2013,07,06,03,10,12.60
2013,07,06,03,11,12.60
2013,07,06,03,12,12.60
2013,07,06,03,13,12.60
2013,07,06,03,14,12.60
2013,07,06,03,15,12.60
2013,07,06,03,16,12.60
2013,07,06,03,17,12.60
2013,07,06,03,18,12.60
2013,07,06,03,19,12.60
2013,07,06,03,20,12.60
2013,07,06,03,21,12.60
2013,07,06,03,22,12.60
2013,07,06,03,23,12.60
2013,07,06,03,24,12.60
2013,07,06,03,25,12.60
2013,07,06,03,26,12.60
2013,07,06,03,27,12.60
2013,07,06,03,28,12.60
2013,07,06,03,29,12.60
2013,07,06,03,30,12.50
2013,07,06,03,31,12.50
2013,07,06,03,32,12.40
2013,07,06,03,33,12.30
2013,07,06,03,34,12.20
2013,07,06,03,35,12.20
2013,07,06,03,36,12.10
2013,07,06,03,37,12.00
2013,07,06,03,38,12.00
2013,07,06,03,39,12.00
2013,07,06,03,40,11.90
2013,07,06,03,41,11.90
2013,07,06,03,42,11.80
2013,07,06,03,43,11.80
2013,07,06,03,44,11.80
2013,07,06,03,45,11.80
2013,07,06,03,46,11.70
2013,07,06,03,47,11.70
2013,07,06,03,48,11.70
2013,07,06,03,49,11.70
2013,07,06,03,50,11.70
2013,07,06,03,51,11.70
2013,07,06,03,52,11.70
2013,07,06,03,53,11.70
2013,07,06,03,54,11.70
2013,07,06,03,55,11.70
2013,07,06,03,56,11.80
2013,07,06,03,57,11.80
2013,07,06,03,58,11.80
2013,07,06,03,59,11.80
2013,07,06,04,00,11.80
2013,07,06,04,01,11.80
2013,07,06,04,02,11.80
2013,07,06,04,03,11.80
2013,07,06,04,04,11.90
2013,07,06,04,05,11.90
2013,07,06,04,06,11.90
2013,07,06,04,07,11.90
2013,07,06,04,08,11.90
2013,07,06,04,09,11.90
2013,07,06,04,10,12.00
2013,07,06,04,11,12.00
2013,07,06,04,12,12.00
2013,07,06,04,13,12.00
2013,07,06,04,14,12.10
2013,07,06,04,15,12.10
2013,07,06,04,16,12.10
2013,07,06,04,17,12.10
2013,07,06,04,18,12.10
2013,07,06,04,19,12.10
2013,07,06,04,20,12.10
2013,07,06,04,21,12.10
2013,07,06,04,22,12.10
2013,07,06,04,23,12.10
2013,07,06,04,24,12.10
2013,07,06,04,25,12.10
2013,07,06,04,26,12.10
2013,07,06,04,27,12.10
2013,07,06,04,28,12.10
2013,07,06,04,29,12.00
2013,07,06,04,30,12.00
2013,07,06,04,31,12.00
2013,07,06,04,32,11.90
2013,07,06,04,33,11.90
2013,07,06,04,34,12.00
2013,07,06,04,35,12.00
2013,07,06,04,36,12.00
2013,07,06,04,37,12.00
2013,07,06,04,38,12.00
2013,07,06,04,39,12.00
2013,07,06,04,40,12.00
2013,07,06,04,41,12.10
2013,07,06,04,42,12.10
2013,07,06,04,43,12.10
2013,07,06,04,44,12.10
2013,07,06,04,45,12.10
2013,07,06,04,46,12.10
2013,07,06,04,47,12.10
2013,07,06,04,48,12.10
2013,07,06,04,49,12.00
2013,07,06,04,50,12.00
2013,07,06,04,51,12.00
2013,07,06,04,52,11.90
2013,07,06,04,53,11.90
2013,07,06,04,54,11.90
2013,07,06,04,55,11.90
2013,07,06,04,56,11.90
2013,07,06,04,57,11.90
2013,07,06,04,58,11.90
2013,07,06,04,59,12.00
2013,07,06,05,00,12.00
2013,07,06,05,01,12.00
2013,07,06,05,02,12.00
2013,07,06,05,03,12.00
2013,07,06,05,04,12.10
2013,07,06,05,05,12.10
2013,07,06,05,06,12.10
2013,07,06,05,07,12.10
2013,07,06,05,08,12.10
2013,07,06,05,09,12.10
2013,07,06,05,10,12.10
2013,07,06,05,11,12.20
2013,07,06,05,12,12.20
2013,07,06,05,13,12.20
2013,07,06,05,14,12.20
2013,07,06,05,15,12.20
2013,07,06,05,16,12.20
2013,07,06,05,17,12.20
2013,07,06,05,18,12.30
2013,07,06,05,19,12.30
2013,07,06,05,20,12.30
2013,07,06,05,21,12.30
2013,07,06,05,22,12.30
2013,07,06,05,23,12.30
2013,07,06,05,24,12.40
2013,07,06,05,25,12.40
2013,07,06,05,26,12.50
2013,07,06,05,27,12.50
2013,07,06,05,28,12.60
2013,07,06,05,29,12.60
2013,07,06,05,30,12.60
2013,07,06,05,31,12.60
2013,07,06,05,32,12.70
2013,07,06,05,33,12.60
2013,07,06,05,34,12.70
2013,07,06,05,35,12.60
2013,07,06,05,36,12.60
2013,07,06,05,37,12.70
2013,07,06,05,38,12.60
2013,07,06,05,39,12.60
2013,07,06,05,40,12.60
2013,07,06,05,41,12.60
2013,07,06,05,42,12.60
2013,07,06,05,43,12.50
2013,07,06,05,44,12.50
2013,07,06,05,45,12.50
2013,07,06,05,46,12.40
2013,07,06,05,47,12.40
2013,07,06,05,48,12.40
2013,07,06,05,49,12.40
2013,07,06,05,50,12.40
2013,07,06,05,51,12.40
2013,07,06,05,52,12.40
2013,07,06,05,53,12.40
2013,07,06,05,54,12.40
2013,07,06,05,55,12.40
2013,07,06,05,56,12.40
2013,07,06,05,57,12.30
2013,07,06,05,58,12.30
2013,07,06,05,59,12.30
2013,07,06,06,00,12.40
2013,07,06,06,01,12.40
2013,07,06,06,02,12.40
2013,07,06,06,03,12.50
2013,07,06,06,04,12.50
2013,07,06,06,05,12.50
2013,07,06,06,06,12.50
2013,07,06,06,07,12.50
2013,07,06,06,08,12.50
2013,07,06,06,09,12.60
2013,07,06,06,10,12.60
2013,07,06,06,11,12.60
2013,07,06,06,12,12.60
2013,07,06,06,13,12.60
2013,07,06,06,14,12.60
2013,07,06,06,15,12.70
2013,07,06,06,16,12.80
2013,07,06,06,17,12.80
2013,07,06,06,18,12.90
2013,07,06,06,19,13.00
2013,07,06,06,20,13.10
2013,07,06,06,21,13.20
2013,07,06,06,22,13.30
2013,07,06,06,23,13.40
2013,07,06,06,24,13.40
2013,07,06,06,25,13.50
2013,07,06,06,26,13.60
2013,07,06,06,27,13.60
2013,07,06,06,28,13.60
2013,07,06,06,29,13.70
2013,07,06,06,30,13.70
2013,07,06,06,31,13.70
2013,07,06,06,32,13.70
2013,07,06,06,33,13.70
2013,07,06,06,34,13.70
2013,07,06,06,35,13.70
2013,07,06,06,36,13.70
2013,07,06,06,37,13.70
2013,07,06,06,38,13.70
2013,07,06,06,39,13.70
2013,07,06,06,40,13.70
2013,07,06,06,41,13.70
2013,07,06,06,42,13.70
2013,07,06,06,43,13.70
2013,07,06,06,44,13.70
2013,07,06,06,45,13.70
2013,07,06,06,46,13.70
2013,07,06,06,47,13.70
2013,07,06,06,48,13.70
2013,07,06,06,49,13.70
2013,07,06,06,50,13.70
2013,07,06,06,51,13.70
2013,07,06,06,52,13.70
2013,07,06,06,53,13.70
2013,07,06,06,54,13.70
2013,07,06,06,55,13.70
2013,07,06,06,56,13.80
2013,07,06,06,57,13.80
2013,07,06,06,58,13.80
2013,07,06,06,59,13.80
2013,07,06,07,00,13.80
2013,07,06,07,01,13.80
2013,07,06,07,02,13.90
2013,07,06,07,03,13.90
2013,07,06,07,04,13.90
2013,07,06,07,05,13.90
2013,07,06,07,06,13.90
2013,07,06,07,07,14.00
2013,07,06,07,08,14.00
2013,07,06,07,09,14.00
2013,07,06,07,10,14.10
2013,07,06,07,11,14.10
2013,07,06,07,12,14.10
2013,07,06,07,13,14.10
2013,07,06,07,14,14.20
2013,07,06,07,15,14.20
2013,07,06,07,16,14.30
2013,07,06,07,17,14.30
2013,07,06,07,18,14.30
2013,07,06,07,19,14.40
2013,07,06,07,20,14.40
2013,07,06,07,21,14.50
2013,07,06,07,22,14.50
2013,07,06,07,23,14.60
2013,07,06,07,24,14.60
2013,07,06,07,25,14.60
2013,07,06,07,26,14.70
2013,07,06,07,27,14.70
2013,07,06,07,28,14.70
2013,07,06,07,29,14.70
2013,07,06,07,30,14.70
2013,07,06,07,31,14.80
2013,07,06,07,32,14.80
2013,07,06,07,33,14.80
2013,07,06,07,34,14.80
2013,07,06,07,35,14.80
2013,07,06,07,36,14.80
2013,07,06,07,37,14.80
2013,07,06,07,38,14.90
2013,07,06,07,39,14.90
2013,07,06,07,40,14.90
2013,07,06,07,41,14.90
2013,07,06,07,42,14.90
2013,07,06,07,43,15.00
2013,07,06,07,44,15.00
2013,07,06,07,45,15.00
2013,07,06,07,46,15.10
2013,07,06,07,47,15.10
2013,07,06,07,48,15.10
2013,07,06,07,49,15.10
2013,07,06,07,50,15.20
2013,07,06,07,51,15.20
2013,07,06,07,52,15.30
2013,07,06,07,53,15.30
2013,07,06,07,54,15.40
2013,07,06,07,55,15.40
2013,07,06,07,56,15.40
2013,07,06,07,57,15.50
2013,07,06,07,58,15.50
2013,07,06,07,59,15.60
2013,07,06,08,00,15.60
2013,07,06,08,01,15.60
2013,07,06,08,02,15.60
2013,07,06,08,03,15.60
2013,07,06,08,04,15.60
2013,07,06,08,05,15.60
2013,07,06,08,06,15.60
2013,07,06,08,07,15.60
2013,07,06,08,08,15.60
2013,07,06,08,09,15.70
2013,07,06,08,10,15.70
2013,07,06,08,11,15.70
2013,07,06,08,12,15.70
2013,07,06,08,13,15.70
2013,07,06,08,14,15.70
2013,07,06,08,15,15.70
2013,07,06,08,16,15.70
2013,07,06,08,17,15.80
2013,07,06,08,18,15.80
2013,07,06,08,19,15.80
2013,07,06,08,20,15.80
2013,07,06,08,21,15.80
2013,07,06,08,22,15.90
2013,07,06,08,23,15.90
2013,07,06,08,24,16.00
2013,07,06,08,25,16.00
2013,07,06,08,26,16.00
2013,07,06,08,27,16.00
2013,07,06,08,28,16.00
2013,07,06,08,29,16.00
2013,07,06,08,30,16.10
2013,07,06,08,31,16.10
2013,07,06,08,32,16.20
2013,07,06,08,33,16.20
2013,07,06,08,34,16.30
2013,07,06,08,35,16.30
2013,07,06,08,36,16.30
2013,07,06,08,37,16.30
2013,07,06,08,38,16.30
2013,07,06,08,39,16.30
2013,07,06,08,40,16.30
2013,07,06,08,41,16.30
2013,07,06,08,42,16.30
2013,07,06,08,43,16.30
2013,07,06,08,44,16.30
2013,07,06,08,45,16.40
2013,07,06,08,46,16.40
2013,07,06,08,47,16.50
2013,07,06,08,48,16.60
2013,07,06,08,49,16.60
2013,07,06,08,50,16.70
2013,07,06,08,51,16.80
2013,07,06,08,52,16.80
2013,07,06,08,53,16.80
2013,07,06,08,54,16.90
2013,07,06,08,55,16.90
2013,07,06,08,56,16.90
2013,07,06,08,57,16.90
2013,07,06,08,58,17.00
2013,07,06,08,59,17.00
2013,07,06,09,00,17.00
2013,07,06,09,01,17.00
2013,07,06,09,02,17.00
2013,07,06,09,03,17.10
2013,07,06,09,04,17.10
2013,07,06,09,05,17.10
2013,07,06,09,06,17.10
2013,07,06,09,07,17.10
2013,07,06,09,08,17.10
2013,07,06,09,09,17.20
2013,07,06,09,10,17.20
2013,07,06,09,11,17.20
2013,07,06,09,12,17.20
2013,07,06,09,13,17.30
2013,07,06,09,14,17.30
2013,07,06,09,15,17.30
2013,07,06,09,16,17.30
2013,07,06,09,17,17.30
2013,07,06,09,18,17.30
2013,07,06,09,19,17.30
2013,07,06,09,20,17.30
2013,07,06,09,21,17.30
2013,07,06,09,22,17.40
2013,07,06,09,23,17.40
2013,07,06,09,24,17.40
2013,07,06,09,25,17.50
2013,07,06,09,26,17.50
2013,07,06,09,27,17.60
2013,07,06,09,28,17.60
2013,07,06,09,29,17.60
2013,07,06,09,30,17.60
2013,07,06,09,31,17.70
2013,07,06,09,32,17.70
2013,07,06,09,33,17.70
2013,07,06,09,34,17.80
2013,07,06,09,35,17.80
2013,07,06,09,36,17.80
2013,07,06,09,37,17.90
2013,07,06,09,38,17.90
2013,07,06,09,39,17.90
2013,07,06,09,40,17.90
2013,07,06,09,41,17.90
2013,07,06,09,42,17.90
2013,07,06,09,43,17.90
2013,07,06,09,44,18.00
2013,07,06,09,45,17.90
2013,07,06,09,46,18.00
2013,07,06,09,47,18.00
2013,07,06,09,48,18.00
2013,07,06,09,49,18.00
2013,07,06,09,50,18.00
2013,07,06,09,51,18.10
2013,07,06,09,52,18.10
2013,07,06,09,53,18.10
2013,07,06,09,54,18.10
2013,07,06,09,55,18.10
2013,07,06,09,56,18.20
2013,07,06,09,57,18.30
2013,07,06,09,58,18.30
2013,07,06,09,59,18.40
2013,07,06,10,00,18.50
2013,07,06,10,01,18.60
2013,07,06,10,02,18.60
2013,07,06,10,03,18.70
2013,07,06,10,04,18.70
2013,07,06,10,05,18.70
2013,07,06,10,06,18.80
2013,07,06,10,07,18.80
2013,07,06,10,08,18.80
2013,07,06,10,09,18.80
2013,07,06,10,10,18.80
2013,07,06,10,11,18.80
2013,07,06,10,12,18.80
2013,07,06,10,13,18.80
2013,07,06,10,14,18.80
2013,07,06,10,15,18.80
2013,07,06,10,16,18.90
2013,07,06,10,17,18.90
2013,07,06,10,18,18.90
2013,07,06,10,19,18.90
2013,07,06,10,20,18.90
2013,07,06,10,21,18.90
2013,07,06,10,22,18.90
2013,07,06,10,23,18.90
2013,07,06,10,24,18.90
2013,07,06,10,25,18.90
2013,07,06,10,26,19.00
2013,07,06,10,27,19.10
2013,07,06,10,28,19.10
2013,07,06,10,29,19.10
2013,07,06,10,30,19.10
2013,07,06,10,31,19.10
2013,07,06,10,32,19.20
2013,07,06,10,33,19.30
2013,07,06,10,34,19.40
2013,07,06,10,35,19.50
2013,07,06,10,36,19.60
2013,07,06,10,37,19.60
2013,07,06,10,38,19.50
2013,07,06,10,39,19.40
2013,07,06,10,40,19.40
2013,07,06,10,41,19.50
2013,07,06,10,42,19.50
2013,07,06,10,43,19.50
2013,07,06,10,44,19.50
2013,07,06,10,45,19.50
2013,07,06,10,46,19.50
2013,07,06,10,47,19.50
2013,07,06,10,48,19.50
2013,07,06,10,49,19.60
2013,07,06,10,50,19.60
2013,07,06,10,51,19.60
2013,07,06,10,52,19.60
2013,07,06,10,53,19.60
2013,07,06,10,54,19.60
2013,07,06,10,55,19.60
2013,07,06,10,56,19.60
2013,07,06,10,57,19.60
2013,07,06,10,58,19.70
2013,07,06,10,59,19.80
2013,07,06,11,00,19.80
2013,07,06,11,01,19.80
2013,07,06,11,02,19.80
2013,07,06,11,03,19.80
2013,07,06,11,04,19.80
2013,07,06,11,05,19.90
2013,07,06,11,06,20.00
2013,07,06,11,07,20.00
2013,07,06,11,08,19.90
2013,07,06,11,09,19.90
2013,07,06,11,10,19.90
2013,07,06,11,11,20.00
2013,07,06,11,12,20.00
2013,07,06,11,13,20.10
2013,07,06,11,14,20.10
2013,07,06,11,15,20.10
2013,07,06,11,16,20.10
2013,07,06,11,17,20.10
2013,07,06,11,18,20.10
2013,07,06,11,19,20.20
2013,07,06,11,20,20.20
2013,07,06,11,21,20.10
2013,07,06,11,22,20.10
2013,07,06,11,23,20.00
2013,07,06,11,24,20.00
2013,07,06,11,25,20.00
2013,07,06,11,26,20.10
2013,07,06,11,27,20.10
2013,07,06,11,28,20.10
2013,07,06,11,29,20.20
2013,07,06,11,30,20.20
2013,07,06,11,31,20.20
2013,07,06,11,32,20.30
2013,07,06,11,33,20.40
2013,07,06,11,34,20.40
2013,07,06,11,35,20.50
2013,07,06,11,36,20.60
2013,07,06,11,37,20.60
2013,07,06,11,38,20.60
2013,07,06,11,39,20.60
2013,07,06,11,40,20.60
2013,07,06,11,41,20.60
2013,07,06,11,42,20.60
2013,07,06,11,43,20.60
2013,07,06,11,44,20.70
2013,07,06,11,45,20.70
2013,07,06,11,46,20.70
2013,07,06,11,47,20.70
2013,07,06,11,48,20.70
2013,07,06,11,49,20.70
2013,07,06,11,50,20.70
2013,07,06,11,51,20.70
2013,07,06,11,52,20.70
2013,07,06,11,53,20.80
2013,07,06,11,54,20.80
2013,07,06,11,55,20.80
2013,07,06,11,56,20.90
2013,07,06,11,57,20.90
2013,07,06,11,58,20.90
2013,07,06,11,59,20.90
2013,07,06,12,00,20.90
2013,07,06,12,01,20.90
2013,07,06,12,02,21.00
2013,07,06,12,03,21.10
2013,07,06,12,04,21.10
2013,07,06,12,05,21.20
2013,07,06,12,06,21.30
2013,07,06,12,07,21.30
2013,07,06,12,08,21.30
2013,07,06,12,09,21.30
2013,07,06,12,10,21.30
2013,07,06,12,11,21.30
2013,07,06,12,12,21.30
2013,07,06,12,13,21.30
2013,07,06,12,14,21.40
2013,07,06,12,15,21.40
2013,07,06,12,16,21.30
2013,07,06,12,17,21.20
2013,07,06,12,18,21.20
2013,07,06,12,19,21.20
2013,07,06,12,20,21.20
2013,07,06,12,21,21.30
2013,07,06,12,22,21.30
2013,07,06,12,23,21.30
2013,07,06,12,24,21.20
2013,07,06,12,25,21.10
2013,07,06,12,26,21.10
2013,07,06,12,27,21.10
2013,07,06,12,28,21.20
2013,07,06,12,29,21.20
2013,07,06,12,30,21.30
2013,07,06,12,31,21.40
2013,07,06,12,32,21.50
2013,07,06,12,33,21.60
2013,07,06,12,34,21.70
2013,07,06,12,35,21.70
2013,07,06,12,36,21.80
2013,07,06,12,37,21.80
2013,07,06,12,38,21.80
2013,07,06,12,39,21.80
2013,07,06,12,40,21.80
2013,07,06,12,41,21.80
2013,07,06,12,42,21.80
2013,07,06,12,43,21.80
2013,07,06,12,44,21.80
2013,07,06,12,45,21.80
2013,07,06,12,46,21.80
2013,07,06,12,47,21.90
2013,07,06,12,48,21.90
2013,07,06,12,49,22.00
2013,07,06,12,50,22.00
2013,07,06,12,51,22.10
2013,07,06,12,52,22.10
2013,07,06,12,53,22.10
2013,07,06,12,54,22.10
2013,07,06,12,55,22.20
2013,07,06,12,56,22.20
2013,07,06,12,57,22.20
2013,07,06,12,58,22.20
2013,07,06,12,59,22.20
2013,07,06,13,00,22.10
2013,07,06,13,01,22.10
2013,07,06,13,02,22.10
2013,07,06,13,03,22.00
2013,07,06,13,04,22.00
2013,07,06,13,05,22.00
2013,07,06,13,06,22.10
2013,07,06,13,07,22.10
2013,07,06,13,08,22.20
2013,07,06,13,09,22.20
2013,07,06,13,10,22.20
2013,07,06,13,11,22.20
2013,07,06,13,12,22.20
2013,07,06,13,13,22.30
2013,07,06,13,14,22.40
2013,07,06,13,15,22.50
2013,07,06,13,16,22.60
2013,07,06,13,17,22.70
2013,07,06,13,18,22.70
2013,07,06,13,19,22.70
2013,07,06,13,20,22.70
2013,07,06,13,21,22.70
2013,07,06,13,22,22.70
2013,07,06,13,23,22.70
2013,07,06,13,24,22.70
2013,07,06,13,25,22.70
2013,07,06,13,26,22.80
2013,07,06,13,27,22.90
2013,07,06,13,28,22.90
2013,07,06,13,29,22.90
2013,07,06,13,30,23.00
2013,07,06,13,31,22.90
2013,07,06,13,32,23.00
2013,07,06,13,33,23.00
2013,07,06,13,34,23.00
2013,07,06,13,35,22.90
2013,07,06,13,36,22.90
2013,07,06,13,37,22.90
2013,07,06,13,38,22.90
2013,07,06,13,39,23.00
2013,07,06,13,40,23.10
2013,07,06,13,41,23.20
2013,07,06,13,42,23.30
2013,07,06,13,43,23.40
2013,07,06,13,44,23.40
2013,07,06,13,45,23.40
2013,07,06,13,46,23.40
2013,07,06,13,47,23.40
2013,07,06,13,48,23.40
2013,07,06,13,49,23.40
2013,07,06,13,50,23.50
2013,07,06,13,51,23.50
2013,07,06,13,52,23.60
2013,07,06,13,53,23.60
2013,07,06,13,54,23.60
2013,07,06,13,55,23.70
2013,07,06,13,56,23.80
2013,07,06,13,57,23.90
2013,07,06,13,58,24.00
2013,07,06,13,59,24.10
2013,07,06,14,00,24.20
2013,07,06,14,01,24.20
2013,07,06,14,02,24.20
2013,07,06,14,03,24.10
2013,07,06,14,04,24.00
2013,07,06,14,05,23.90
2013,07,06,14,06,24.00
2013,07,06,14,07,24.00
2013,07,06,14,08,24.10
2013,07,06,14,09,24.00
2013,07,06,14,10,24.00
2013,07,06,14,11,24.00
2013,07,06,14,12,24.00
2013,07,06,14,13,24.00
2013,07,06,14,14,24.00
2013,07,06,14,15,24.00
2013,07,06,14,16,24.00
2013,07,06,14,17,24.10
2013,07,06,14,18,24.10
2013,07,06,14,19,24.00
2013,07,06,14,20,23.90
2013,07,06,14,21,23.90
2013,07,06,14,22,23.90
2013,07,06,14,23,23.90
2013,07,06,14,24,24.00
2013,07,06,14,25,24.10
2013,07,06,14,26,24.20
2013,07,06,14,27,24.20
2013,07,06,14,28,24.20
2013,07,06,14,29,24.20
2013,07,06,14,30,24.30
2013,07,06,14,31,24.40
2013,07,06,14,32,24.40
2013,07,06,14,33,24.40
2013,07,06,14,34,24.40
2013,07,06,14,35,24.40
2013,07,06,14,36,24.30
2013,07,06,14,37,24.30
2013,07,06,14,38,24.30
2013,07,06,14,39,24.30
2013,07,06,14,40,24.30
2013,07,06,14,41,24.30
2013,07,06,14,42,24.30
2013,07,06,14,43,24.30
2013,07,06,14,44,24.30
2013,07,06,14,45,24.40
2013,07,06,14,46,24.50
2013,07,06,14,47,24.50
2013,07,06,14,48,24.50
2013,07,06,14,49,24.60
2013,07,06,14,50,24.60
2013,07,06,14,51,24.70
2013,07,06,14,52,24.80
2013,07,06,14,53,24.90
2013,07,06,14,54,25.10
2013,07,06,14,55,25.20
2013,07,06,14,56,25.20
2013,07,06,14,57,25.30
2013,07,06,14,58,25.30
2013,07,06,14,59,25.30
2013,07,06,15,00,25.30
2013,07,06,15,01,25.30
2013,07,06,15,02,25.30
2013,07,06,15,03,25.40
2013,07,06,15,04,25.40
2013,07,06,15,05,25.40
2013,07,06,15,06,25.40
2013,07,06,15,07,25.40
2013,07,06,15,08,25.40
2013,07,06,15,09,25.40
2013,07,06,15,10,25.40
2013,07,06,15,11,25.40
2013,07,06,15,12,25.50
2013,07,06,15,13,25.50
2013,07,06,15,14,25.50
2013,07,06,15,15,25.50
2013,07,06,15,16,25.40
2013,07,06,15,17,25.40
2013,07,06,15,18,25.50
2013,07,06,15,19,25.50
2013,07,06,15,20,25.60
2013,07,06,15,21,25.60
2013,07,06,15,22,25.50
2013,07,06,15,23,25.50
2013,07,06,15,24,25.50
2013,07,06,15,25,25.40
2013,07,06,15,26,25.30
2013,07,06,15,27,25.30
2013,07,06,15,28,25.30
2013,07,06,15,29,25.30
2013,07,06,15,30,25.20
2013,07,06,15,31,25.20
2013,07,06,15,32,25.20
2013,07,06,15,33,25.20
2013,07,06,15,34,25.30
2013,07,06,15,35,25.40
2013,07,06,15,36,25.50
2013,07,06,15,37,25.50
2013,07,06,15,38,25.60
2013,07,06,15,39,25.70
2013,07,06,15,40,25.70
2013,07,06,15,41,25.80
2013,07,06,15,42,25.80
2013,07,06,15,43,25.80
2013,07,06,15,44,25.80
2013,07,06,15,45,25.90
2013,07,06,15,46,26.00
2013,07,06,15,47,26.00
2013,07,06,15,48,26.10
2013,07,06,15,49,26.30
2013,07,06,15,50,26.40
2013,07,06,15,51,26.50
2013,07,06,15,52,26.60
2013,07,06,15,53,26.60
2013,07,06,15,54,26.60
2013,07,06,15,55,26.60
2013,07,06,15,56,26.60
2013,07,06,15,57,26.70
2013,07,06,15,58,26.70
2013,07,06,15,59,26.70
2013,07,06,16,00,26.70
2013,07,06,16,01,26.70
2013,07,06,16,02,26.80
2013,07,06,16,03,26.80
2013,07,06,16,04,26.80
2013,07,06,16,05,26.80
2013,07,06,16,06,26.70
2013,07,06,16,07,26.70
2013,07,06,16,08,26.80
2013,07,06,16,09,26.80
2013,07,06,16,10,26.80
2013,07,06,16,11,26.80
2013,07,06,16,12,26.80
2013,07,06,16,13,26.70
2013,07,06,16,14,26.70
2013,07,06,16,15,26.70
2013,07,06,16,16,26.70
2013,07,06,16,17,26.70
2013,07,06,16,18,26.70
2013,07,06,16,19,26.80
2013,07,06,16,20,26.80
2013,07,06,16,21,26.80
2013,07,06,16,22,26.70
2013,07,06,16,23,26.60
2013,07,06,16,24,26.50
2013,07,06,16,25,26.40
2013,07,06,16,26,26.40
2013,07,06,16,27,26.40
2013,07,06,16,28,26.30
2013,07,06,16,29,26.40
2013,07,06,16,30,26.50
2013,07,06,16,31,26.60
2013,07,06,16,32,26.70
2013,07,06,16,33,26.70
2013,07,06,16,34,26.50
2013,07,06,16,35,26.40
2013,07,06,16,36,26.30
2013,07,06,16,37,26.20
2013,07,06,16,38,26.20
2013,07,06,16,39,26.10
2013,07,06,16,40,26.10
2013,07,06,16,41,26.10
2013,07,06,16,42,26.10
2013,07,06,16,43,26.10
2013,07,06,16,44,26.10
2013,07,06,16,45,26.10
2013,07,06,16,46,26.20
2013,07,06,16,47,26.20
2013,07,06,16,48,26.20
2013,07,06,16,49,26.30
2013,07,06,16,50,26.30
2013,07,06,16,51,26.40
2013,07,06,16,52,26.40
2013,07,06,16,53,26.50
2013,07,06,16,54,26.60
2013,07,06,16,55,26.70
2013,07,06,16,56,26.70
2013,07,06,16,57,26.80
2013,07,06,16,58,26.80
2013,07,06,16,59,26.80
2013,07,06,17,00,26.80
2013,07,06,17,01,26.80
2013,07,06,17,02,26.80
2013,07,06,17,03,26.90
2013,07,06,17,04,27.00
2013,07,06,17,05,27.10
2013,07,06,17,06,27.10
2013,07,06,17,07,27.10
2013,07,06,17,08,27.10
2013,07,06,17,09,27.20
2013,07,06,17,10,27.10
2013,07,06,17,11,27.10
2013,07,06,17,12,27.00
2013,07,06,17,13,27.00
2013,07,06,17,14,26.90
2013,07,06,17,15,26.90
2013,07,06,17,16,26.90
2013,07,06,17,17,26.80
2013,07,06,17,18,26.80
2013,07,06,17,19,26.80